Simultaneous Nadir Overpasses (SNOs) Predictions

Prediction of SNOs between GOES-17 and METOP-B Satellite Orbit:

Table of predicted SNOs for the next 14.0 days since TLE Epoch: 3/12/2022
Index Date Time (GOES-17) GOES-17 Lat,Lon METOP-B Lat,Lon Distance(km) Time Diff (sec)
1 03/12/2022 06:24:13 -0.03,-137.21 0.72,-133.94 372.21 80
2 03/13/2022 18:43:05 0.03,-137.21 0.30,-138.51 147.75 80
3 03/14/2022 18:25:04 0.03,-137.20 -0.78,-133.50 421.02 80
4 03/16/2022 06:44:03 -0.03,-137.19 -0.25,-138.10 103.71 80
5 03/17/2022 06:20:44 -0.03,-137.19 0.89,-133.11 464.72 80
6 03/18/2022 18:39:35 0.03,-137.18 0.12,-137.68 56.29 80
7 03/21/2022 06:40:34 -0.03,-137.15 -0.05,-137.27 13.81 80
8 03/23/2022 18:38:45 0.03,-137.11 -0.02,-136.83 30.91 80
9 03/25/2022 06:57:44 -0.02,-137.08 -0.99,-141.43 496.26 80
